Weather History for Worland, WY

Change the Weather History Date:

Sunday, February 3, 2013

  Actual Average Record
Temperature  
Mean Temperature 16 °F 20 °F  
Max Temperature 29 °F 33 °F 59 °F (2005)
Min Temperature 2 °F 6 °F -36 °F (1996)
Degree Days  
Heating Degree Days 49 45  
Month to date heating degree days 139 137  
Since 1 July heating degree days 4465 4985  
Cooling Degree Days 0 0  
Month to date cooling degree days 0 0  
Year to date cooling degree days 0 0  
Moisture  
Dew Point 10 °F    
Average Humidity 80    
Maximum Humidity 92    
Minimum Humidity 68    
Precipitation  
Precipitation 0.00 in 0.01 in 0.15 in (1977)
Month to date precipitation 0.00 0.02  
Year to date precipitation 0.13 0.25  
Sea Level Pressure  
Sea Level Pressure 30.23 in    
Wind  
Wind Speed 2 mph (SSE)    
Max Wind Speed 8 mph    
Max Gust Speed 8 mph    
Visibility 9 miles    
Events      
T = Trace of Precipitation, MM = Missing Value Source: NWS Daily Summary

Daily Weather History Graph

Daily Weather History Graph

Search for Another Location

Airport:

Trip Planner

Search our weather history database for the weather conditions in past years. The results will help you decide how hot, cold, wet, or windy it might be!

Date:

Astronomy

Feb. 03, 2013 Rise Set
Actual Time 7:26 AM MST 5:25 PM MST
Civil Twilight 6:55 AM MST 5:55 PM MST
Nautical Twilight 6:21 AM MST 6:30 PM MST
Astronomical Twilight 5:47 AM MST 7:04 PM MST
Moon 12:58 AM MST (2/3) 11:03 AM MST (2/3)
Length of Visible Light 11h 00m
Length of Day
9h 59m
Waning Gibbous, 48% of the Moon is Illuminated
Feb 3
Waning Gibbous
Feb 10
New
Feb 17
First Quarter
Feb 25
Full
Mar 4
Last Quarter

Hourly Weather History & Observations

Time (MST) Temp. Windchill Dew Point Humidity Pressure Visibility Wind Dir Wind Speed Gust Speed Precip Events Conditions
12:45 AM 10.4 °F - 8.6 °F 92% 30.23 in 1.5 mi Calm Calm - N/A   Clear
12:53 AM 9.0 °F - 7.0 °F 92% 30.43 in 1.0 mi Calm Calm - N/A   Clear
1:53 AM 8.1 °F - 5.0 °F 87% 30.38 in 10.0 mi Calm Calm - N/A   Clear
2:53 AM 7.0 °F - 3.0 °F 84% 30.35 in 10.0 mi Calm Calm - N/A   Clear
3:53 AM 8.1 °F - 3.9 °F 83% 30.33 in 10.0 mi Calm Calm - N/A   Clear
4:53 AM 10.0 °F 0.4 °F 8.1 °F 92% 30.30 in 10.0 mi South 5.8 mph - N/A   Clear
5:53 AM 6.1 °F - 1.9 °F 83% 30.32 in 10.0 mi Calm Calm - N/A   Clear
6:53 AM 3.0 °F -4.4 °F -0.0 °F 87% 30.32 in 10.0 mi SSW 3.5 mph - N/A   Clear
7:53 AM 9.0 °F 2.4 °F 5.0 °F 84% 30.28 in 10.0 mi SSW 3.5 mph - N/A   Clear
8:53 AM 10.0 °F 3.6 °F 8.1 °F 92% 30.26 in 10.0 mi South 3.5 mph - N/A   Clear
9:53 AM 16.0 °F - 14.0 °F 92% 30.22 in 10.0 mi Calm Calm - N/A   Clear
10:53 AM 16.0 °F - 12.9 °F 88% 30.22 in 10.0 mi Calm Calm - N/A   Clear
11:53 AM 19.0 °F - 14.0 °F 81% 30.21 in 10.0 mi Calm Calm - N/A   Clear
12:53 PM 21.9 °F 17.2 °F 16.0 °F 78% 30.19 in 10.0 mi East 3.5 mph - N/A   Clear
1:53 PM 27.0 °F - 18.0 °F 69% 30.14 in 10.0 mi Calm Calm - N/A   Clear
2:53 PM 28.9 °F 23.9 °F 19.0 °F 67% 30.13 in 10.0 mi North 4.6 mph - N/A   Clear
3:53 PM 28.0 °F - 19.0 °F 69% 30.14 in 10.0 mi Calm Calm - N/A   Clear
4:53 PM 26.1 °F - 18.0 °F 71% 30.13 in 10.0 mi Calm Calm - N/A   Clear
5:53 PM 18.0 °F 11.1 °F 14.0 °F 84% 30.19 in 10.0 mi NE 4.6 mph - N/A   Clear
6:53 PM 14.0 °F 6.5 °F 10.9 °F 88% 30.20 in 10.0 mi ENE 4.6 mph - N/A   Clear
7:53 PM 16.0 °F - 12.0 °F 84% 30.17 in 10.0 mi Calm Calm - N/A   Clear
8:53 PM 10.9 °F - 9.0 °F 92% 30.19 in 10.0 mi Calm Calm - N/A   Clear
9:53 PM 8.1 °F - 6.1 °F 92% 30.18 in 10.0 mi Calm Calm - N/A   Clear
10:53 PM 10.0 °F - 8.1 °F 92% 30.17 in 10.0 mi Calm Calm - N/A   Clear
11:53 PM 12.0 °F 4.1 °F 9.0 °F 88% 30.14 in 10.0 mi SSW 4.6 mph - N/A   Clear